DLH8PP EDDF-LMML

Flight info

Callsign DLH8PP
Flight time 2h 9m
Altitude 37000
Route ANEKI2L/18 ANEKI Y163 NATOR DCT TRA DCT RIPUS DCT GERSA DCT SOSON DCT ODINA DCT GOLAS DCT MAMAR DCT PAL DCT MARON L12 GZO
Aircraft A321/M-SDE3FGHIRWY/LB1

Departure

Time 2026-05-04 12:12
Airport Frankfurt Main Airport (EDDF)

Arrival

Time 2026-05-04 14:21
Airport Malta International Airport (LMML)
Time Latitude Longitude Altitude Speed Heading
2026-05-04 11:16 50.04737 8.56736 361 ft 0 kts 115°
2026-05-04 11:55 50.04771 8.56667 363 ft 3 kts 198°
2026-05-04 11:55 50.04788 8.56678 361 ft 2 kts 205°
2026-05-04 11:56 50.04791 8.56680 361 ft 0 kts 205°
2026-05-04 11:59 50.04789 8.56679 361 ft 1 kts 205°
2026-05-04 11:59 50.04773 8.56668 363 ft 6 kts 205°
2026-05-04 11:59 50.04734 8.56610 360 ft 9 kts 232°
2026-05-04 12:00 50.04690 8.56540 359 ft 10 kts 214°
2026-05-04 12:00 50.04627 8.56495 362 ft 11 kts 205°
2026-05-04 12:00 50.04557 8.56445 362 ft 12 kts 205°
2026-05-04 12:00 50.04508 8.56350 361 ft 12 kts 250°
2026-05-04 12:01 50.04479 8.56225 361 ft 13 kts 250°
2026-05-04 12:01 50.04446 8.56087 358 ft 14 kts 250°
2026-05-04 12:02 50.04143 8.55540 354 ft 16 kts 249°
2026-05-04 12:03 50.04104 8.55371 357 ft 17 kts 250°
2026-05-04 12:03 50.04065 8.55205 358 ft 16 kts 249°
2026-05-04 12:03 50.04024 8.55037 361 ft 17 kts 249°
2026-05-04 12:03 50.03982 8.54861 354 ft 19 kts 250°
2026-05-04 12:04 50.03934 8.54663 356 ft 20 kts 250°
2026-05-04 12:04 50.03884 8.54454 351 ft 17 kts 248°
2026-05-04 12:04 50.03835 8.54314 351 ft 15 kts 234°
2026-05-04 12:04 50.03785 8.54161 350 ft 17 kts 249°
2026-05-04 12:05 50.03742 8.53985 351 ft 18 kts 250°
2026-05-04 12:05 50.03697 8.53794 344 ft 19 kts 249°
2026-05-04 12:05 50.03640 8.53564 337 ft 25 kts 246°
2026-05-04 12:05 50.03577 8.53308 337 ft 26 kts 249°
2026-05-04 12:06 50.03517 8.53060 334 ft 23 kts 249°
2026-05-04 12:06 50.03469 8.52866 332 ft 16 kts 247°
2026-05-04 12:06 50.03436 8.52742 333 ft 7 kts 249°
2026-05-04 12:06 50.03433 8.52729 331 ft 0 kts 250°
2026-05-04 12:07 50.03433 8.52728 331 ft 1 kts 250°
2026-05-04 12:08 50.03428 8.52708 332 ft 1 kts 250°
2026-05-04 12:08 50.03423 8.52686 333 ft 3 kts 250°
2026-05-04 12:08 50.03421 8.52678 336 ft 0 kts 250°
2026-05-04 12:09 50.03419 8.52668 332 ft 1 kts 250°
2026-05-04 12:09 50.03414 8.52649 333 ft 3 kts 250°
2026-05-04 12:09 50.03403 8.52610 332 ft 5 kts 236°
2026-05-04 12:09 50.03371 8.52595 334 ft 0 kts 181°
2026-05-04 12:10 50.03369 8.52595 334 ft 1 kts 181°
2026-05-04 12:11 50.03298 8.52593 332 ft 36 kts 180°
2026-05-04 12:11 50.02801 8.52597 336 ft 106 kts 180°
2026-05-04 12:11 50.01859 8.52608 335 ft 162 kts 179°
2026-05-04 12:11 50.00667 8.52634 839 ft 169 kts 181°
2026-05-04 12:12 49.99493 8.52684 1623 ft 169 kts 180°
2026-05-04 12:12 49.98281 8.52756 2106 ft 183 kts 180°
2026-05-04 12:12 49.96931 8.52844 2312 ft 205 kts 179°
2026-05-04 12:12 49.95439 8.52943 2586 ft 222 kts 180°
2026-05-04 12:13 49.93877 8.53054 3265 ft 224 kts 180°
2026-05-04 12:14 49.81126 8.53952 7773 ft 275 kts 179°
2026-05-04 12:15 49.79215 8.54083 8559 ft 275 kts 179°
2026-05-04 12:15 49.77309 8.54052 9341 ft 274 kts 186°
2026-05-04 12:15 49.75408 8.53797 10112 ft 274 kts 185°
2026-05-04 12:15 49.73437 8.53533 10328 ft 295 kts 185°
2026-05-04 12:16 49.71317 8.53251 10482 ft 315 kts 185°
2026-05-04 12:16 49.69856 8.53058 10753 ft 321 kts 185°
2026-05-04 12:16 49.67613 8.52764 11311 ft 325 kts 185°
2026-05-04 12:16 49.65351 8.52465 11917 ft 329 kts 185°
2026-05-04 12:17 49.63054 8.52157 12537 ft 332 kts 185°
2026-05-04 12:17 49.60743 8.51847 13133 ft 336 kts 185°
2026-05-04 12:17 49.58401 8.51533 13729 ft 339 kts 185°
2026-05-04 12:17 49.56039 8.51223 14261 ft 342 kts 185°
2026-05-04 12:18 49.53657 8.50913 14801 ft 345 kts 185°
2026-05-04 12:18 49.51259 8.50602 15356 ft 347 kts 185°
2026-05-04 12:18 49.48852 8.50287 15908 ft 349 kts 185°
2026-05-04 12:18 49.46418 8.49969 16457 ft 351 kts 186°
2026-05-04 12:19 49.43976 8.49646 17001 ft 354 kts 186°
2026-05-04 12:19 49.41517 8.49320 17510 ft 356 kts 186°
2026-05-04 12:19 49.39032 8.48995 18012 ft 359 kts 186°
2026-05-04 12:19 49.36534 8.48670 18491 ft 362 kts 186°
2026-05-04 12:20 49.34016 8.48342 18955 ft 364 kts 186°
2026-05-04 12:20 49.31489 8.48014 19413 ft 366 kts 186°
2026-05-04 12:20 49.28946 8.47686 19862 ft 368 kts 186°
2026-05-04 12:20 49.26391 8.47353 20304 ft 369 kts 186°
2026-05-04 12:21 49.23824 8.47016 20736 ft 371 kts 186°
2026-05-04 12:21 49.21244 8.46679 21161 ft 373 kts 186°
2026-05-04 12:21 49.18655 8.46342 21594 ft 375 kts 186°
2026-05-04 12:21 49.16045 8.46001 22047 ft 377 kts 186°
2026-05-04 12:22 49.13426 8.45661 22465 ft 379 kts 186°
2026-05-04 12:22 49.10797 8.45322 22890 ft 381 kts 186°
2026-05-04 12:22 49.08149 8.44983 23311 ft 383 kts 186°
2026-05-04 12:22 49.05504 8.44462 23700 ft 383 kts 193°
2026-05-04 12:23 49.02898 8.43555 24070 ft 385 kts 194°
2026-05-04 12:23 49.00282 8.42640 24462 ft 387 kts 194°
2026-05-04 12:23 48.97652 8.41720 24854 ft 389 kts 194°
2026-05-04 12:23 48.95001 8.40796 25214 ft 391 kts 194°
2026-05-04 12:24 48.92344 8.39870 25575 ft 393 kts 194°
2026-05-04 12:24 48.89717 8.38955 25903 ft 394 kts 194°
2026-05-04 12:24 48.87032 8.38022 26232 ft 396 kts 194°
2026-05-04 12:24 48.84342 8.37087 26558 ft 398 kts 194°
2026-05-04 12:25 48.81640 8.36149 26882 ft 399 kts 194°
2026-05-04 12:25 48.78922 8.35212 27209 ft 401 kts 194°
2026-05-04 12:25 48.76197 8.34259 27521 ft 403 kts 195°
2026-05-04 12:25 48.73463 8.33271 27831 ft 405 kts 195°
2026-05-04 12:26 48.70721 8.32264 28174 ft 407 kts 196°
2026-05-04 12:26 48.67965 8.31248 28519 ft 408 kts 196°
2026-05-04 12:26 48.65199 8.30228 28828 ft 410 kts 196°
2026-05-04 12:26 48.62416 8.29207 29128 ft 412 kts 196°
2026-05-04 12:27 48.59628 8.28189 29435 ft 413 kts 196°
2026-05-04 12:27 48.56825 8.27169 29752 ft 415 kts 196°
2026-05-04 12:27 48.54009 8.26146 30044 ft 417 kts 196°
2026-05-04 12:27 48.51174 8.25194 30255 ft 420 kts 192°
2026-05-04 12:28 48.48246 8.24856 30461 ft 425 kts 182°
2026-05-04 12:28 48.45285 8.25270 30674 ft 430 kts 174°
2026-05-04 12:28 48.42327 8.26006 30861 ft 432 kts 174°
2026-05-04 12:28 48.39358 8.26736 31085 ft 433 kts 175°
2026-05-04 12:29 48.36389 8.27459 31358 ft 431 kts 175°
2026-05-04 12:29 48.33435 8.28175 31618 ft 430 kts 175°
2026-05-04 12:29 48.30478 8.28889 31887 ft 430 kts 175°
2026-05-04 12:29 48.27530 8.29595 32140 ft 429 kts 175°
2026-05-04 12:30 48.24578 8.30304 32381 ft 429 kts 175°
2026-05-04 12:30 48.21632 8.31012 32646 ft 429 kts 175°
2026-05-04 12:30 48.18686 8.31723 32927 ft 428 kts 175°
2026-05-04 12:30 48.15750 8.32429 33184 ft 427 kts 175°
2026-05-04 12:31 48.12817 8.33136 33426 ft 427 kts 175°
2026-05-04 12:31 48.09892 8.33848 33689 ft 426 kts 174°
2026-05-04 12:31 48.06961 8.34564 33957 ft 426 kts 174°
2026-05-04 12:31 48.04038 8.35275 34179 ft 425 kts 175°
2026-05-04 12:32 48.01116 8.35979 34387 ft 425 kts 175°
2026-05-04 12:32 47.95275 8.37381 34797 ft 425 kts 174°
2026-05-04 12:32 47.92355 8.38086 34996 ft 425 kts 174°
2026-05-04 12:33 47.89433 8.38792 35188 ft 425 kts 174°
2026-05-04 12:33 47.86511 8.39499 35402 ft 425 kts 174°
2026-05-04 12:33 47.83597 8.40202 35632 ft 425 kts 174°
2026-05-04 12:33 47.80673 8.40904 35843 ft 425 kts 174°
2026-05-04 12:34 47.77757 8.41601 36047 ft 425 kts 174°
2026-05-04 12:34 47.74835 8.42299 36221 ft 425 kts 174°
2026-05-04 12:34 47.71922 8.42996 36392 ft 425 kts 174°
2026-05-04 12:34 47.69046 8.43680 36514 ft 426 kts 175°
2026-05-04 12:35 47.66108 8.44277 36657 ft 426 kts 176°
2026-05-04 12:35 47.63165 8.44744 36817 ft 425 kts 178°
2026-05-04 12:35 47.60185 8.45140 36973 ft 425 kts 178°
2026-05-04 12:36 47.54323 8.45884 37005 ft 425 kts 178°
2026-05-04 12:36 47.48430 8.46706 36995 ft 425 kts 178°
2026-05-04 12:37 47.42537 8.47571 37000 ft 425 kts 177°
2026-05-04 12:37 47.36650 8.48443 37001 ft 425 kts 177°
2026-05-04 12:38 47.30899 8.49292 37011 ft 426 kts 178°
2026-05-04 12:38 47.24983 8.50160 37010 ft 427 kts 178°
2026-05-04 12:39 47.19073 8.51018 37009 ft 427 kts 178°
2026-05-04 12:39 47.13162 8.51879 37010 ft 427 kts 178°
2026-05-04 12:40 47.07241 8.52741 37006 ft 427 kts 178°
2026-05-04 12:40 47.01330 8.53593 36998 ft 426 kts 178°
2026-05-04 12:41 46.95413 8.54438 37030 ft 428 kts 178°
2026-05-04 12:41 46.89480 8.55283 37048 ft 428 kts 177°
2026-05-04 12:42 46.83555 8.56136 37031 ft 427 kts 177°
2026-05-04 12:42 46.77635 8.56991 37044 ft 428 kts 178°
2026-05-04 12:43 46.71743 8.57841 37065 ft 429 kts 178°
2026-05-04 12:43 46.65805 8.58686 37069 ft 429 kts 178°
2026-05-04 12:44 46.59860 8.59530 37101 ft 429 kts 178°
2026-05-04 12:44 46.53918 8.60374 37101 ft 429 kts 178°
2026-05-04 12:45 46.47973 8.61217 37119 ft 429 kts 178°
2026-05-04 12:45 46.42030 8.62056 37113 ft 429 kts 178°
2026-05-04 12:46 46.36082 8.62897 37133 ft 429 kts 178°
2026-05-04 12:46 46.30138 8.63738 37133 ft 429 kts 178°
2026-05-04 12:47 46.24193 8.64571 37115 ft 429 kts 178°
2026-05-04 12:47 46.18245 8.65396 37129 ft 429 kts 178°
2026-05-04 12:48 46.12296 8.66259 37134 ft 431 kts 174°
2026-05-04 12:48 46.06534 8.68802 37130 ft 437 kts 161°
2026-05-04 12:49 46.00906 8.72168 37149 ft 438 kts 161°
2026-05-04 12:49 45.95272 8.75514 37136 ft 439 kts 161°
2026-05-04 12:50 45.89620 8.78864 37146 ft 440 kts 161°
2026-05-04 12:50 45.83964 8.82204 37146 ft 440 kts 161°
2026-05-04 12:51 45.78301 8.85538 37138 ft 440 kts 161°
2026-05-04 12:51 45.72621 8.88865 37134 ft 441 kts 161°
2026-05-04 12:52 45.66931 8.92195 37146 ft 442 kts 161°
2026-05-04 12:52 45.61239 8.95532 37146 ft 443 kts 161°
2026-05-04 12:53 45.55532 8.98869 37146 ft 443 kts 161°
2026-05-04 12:53 45.49823 9.02200 37122 ft 444 kts 161°
2026-05-04 12:54 45.44102 9.05519 37125 ft 444 kts 161°
2026-05-04 12:54 45.38378 9.08841 37118 ft 445 kts 162°
2026-05-04 12:55 45.32635 9.12167 37121 ft 446 kts 162°
2026-05-04 12:55 45.26926 9.15469 37126 ft 446 kts 162°
2026-05-04 12:56 45.21175 9.18793 37128 ft 447 kts 162°
2026-05-04 12:56 45.15412 9.22105 37125 ft 447 kts 162°
2026-05-04 12:57 45.09645 9.25409 37111 ft 448 kts 162°
2026-05-04 12:57 45.03867 9.28721 37122 ft 448 kts 162°
2026-05-04 12:58 44.98087 9.32033 37117 ft 448 kts 162°
2026-05-04 12:58 44.92298 9.35330 37117 ft 449 kts 162°
2026-05-04 12:59 44.86497 9.38629 37125 ft 450 kts 162°
2026-05-04 12:59 44.80694 9.41924 37128 ft 450 kts 162°
2026-05-04 13:00 44.74886 9.45205 37120 ft 450 kts 163°
2026-05-04 13:00 44.69071 9.48494 37124 ft 451 kts 163°
2026-05-04 13:01 44.63284 9.51765 37123 ft 451 kts 163°
2026-05-04 13:01 44.57447 9.55056 37113 ft 452 kts 163°
2026-05-04 13:02 44.51560 9.58367 37118 ft 453 kts 163°
2026-05-04 13:02 44.45703 9.61643 37123 ft 454 kts 163°
2026-05-04 13:03 44.39893 9.64968 37134 ft 455 kts 162°
2026-05-04 13:03 44.34055 9.68410 37138 ft 455 kts 162°
2026-05-04 13:04 44.28224 9.71839 37152 ft 455 kts 162°
2026-05-04 13:04 44.23330 9.74682 37155 ft 455 kts 162°
2026-05-04 13:05 44.17484 9.78060 37150 ft 455 kts 162°
2026-05-04 13:05 44.11634 9.81448 37156 ft 455 kts 162°
2026-05-04 13:06 44.05780 9.84827 37146 ft 456 kts 162°
2026-05-04 13:06 43.99958 9.88187 37149 ft 456 kts 162°
2026-05-04 13:07 43.94086 9.91570 37147 ft 457 kts 163°
2026-05-04 13:07 43.88207 9.94939 37150 ft 458 kts 163°
2026-05-04 13:08 43.82311 9.98312 37150 ft 458 kts 163°
2026-05-04 13:08 43.76418 10.01673 37132 ft 458 kts 163°
2026-05-04 13:09 43.70516 10.05036 37135 ft 459 kts 163°
2026-05-04 13:09 43.64609 10.08397 37137 ft 459 kts 163°
2026-05-04 13:10 43.58701 10.11760 37144 ft 459 kts 163°
2026-05-04 13:10 43.52786 10.15107 37137 ft 460 kts 163°
2026-05-04 13:11 43.46861 10.18457 37141 ft 460 kts 163°
2026-05-04 13:11 43.40932 10.21800 37135 ft 461 kts 163°
2026-05-04 13:12 43.35037 10.25124 37124 ft 461 kts 163°
2026-05-04 13:12 43.29091 10.28471 37140 ft 462 kts 163°
2026-05-04 13:13 43.23132 10.31800 37145 ft 462 kts 163°
2026-05-04 13:13 43.17173 10.35127 37145 ft 463 kts 163°
2026-05-04 13:14 43.11206 10.38456 37131 ft 464 kts 164°
2026-05-04 13:14 43.05225 10.41794 37132 ft 464 kts 164°
2026-05-04 13:15 42.99238 10.45120 37140 ft 465 kts 164°
2026-05-04 13:15 42.93240 10.48443 37134 ft 465 kts 164°
2026-05-04 13:16 42.87241 10.51769 37138 ft 466 kts 165°
2026-05-04 13:16 42.81228 10.55084 37148 ft 466 kts 165°
2026-05-04 13:17 42.75214 10.58398 37146 ft 467 kts 164°
2026-05-04 13:17 42.69189 10.61714 37128 ft 468 kts 165°
2026-05-04 13:18 42.63139 10.65023 37126 ft 469 kts 165°
2026-05-04 13:18 42.57077 10.68341 37144 ft 470 kts 165°
2026-05-04 13:19 42.51011 10.71668 37128 ft 471 kts 165°
2026-05-04 13:19 42.44931 10.74985 37143 ft 471 kts 165°
2026-05-04 13:20 42.38843 10.78303 37149 ft 472 kts 165°
2026-05-04 13:20 42.32793 10.81590 37149 ft 472 kts 165°
2026-05-04 13:21 42.26693 10.84892 37151 ft 472 kts 165°
2026-05-04 13:21 42.20587 10.88185 37155 ft 472 kts 165°
2026-05-04 13:22 42.14482 10.91473 37153 ft 472 kts 165°
2026-05-04 13:22 42.08380 10.94750 37137 ft 473 kts 165°
2026-05-04 13:23 42.02271 10.98033 37141 ft 473 kts 165°
2026-05-04 13:23 41.96154 11.01324 37147 ft 473 kts 165°
2026-05-04 13:24 41.90041 11.04605 37152 ft 474 kts 165°
2026-05-04 13:24 41.83919 11.07877 37140 ft 474 kts 165°
2026-05-04 13:25 41.74757 11.12903 37148 ft 476 kts 163°
2026-05-04 13:25 41.68709 11.16522 37149 ft 476 kts 162°
2026-05-04 13:26 41.62662 11.20138 37135 ft 476 kts 162°
2026-05-04 13:26 41.56602 11.23679 37147 ft 475 kts 163°
2026-05-04 13:27 41.50530 11.27182 37147 ft 475 kts 163°
2026-05-04 13:27 41.44461 11.30678 37154 ft 475 kts 163°
2026-05-04 13:28 41.38392 11.34189 37134 ft 476 kts 163°
2026-05-04 13:28 41.32358 11.37677 37140 ft 476 kts 163°
2026-05-04 13:29 41.26274 11.41184 37143 ft 477 kts 163°
2026-05-04 13:29 41.20143 11.44721 37127 ft 477 kts 163°
2026-05-04 13:30 41.14092 11.48195 37139 ft 477 kts 163°
2026-05-04 13:30 41.07990 11.51687 37144 ft 478 kts 163°
2026-05-04 13:31 41.01881 11.55177 37147 ft 478 kts 163°
2026-05-04 13:31 40.95773 11.58658 37138 ft 478 kts 163°
2026-05-04 13:32 40.89656 11.62136 37149 ft 479 kts 163°
2026-05-04 13:32 40.83535 11.65613 37143 ft 479 kts 163°
2026-05-04 13:33 40.77404 11.69096 37142 ft 480 kts 163°
2026-05-04 13:33 40.71268 11.72570 37134 ft 481 kts 163°
2026-05-04 13:34 40.65109 11.76047 37135 ft 482 kts 163°
2026-05-04 13:34 40.58942 11.79516 37139 ft 483 kts 163°
2026-05-04 13:35 40.49664 11.84725 37135 ft 484 kts 162°
2026-05-04 13:36 40.43466 11.88206 37137 ft 485 kts 162°
2026-05-04 13:36 40.37262 11.91675 37142 ft 485 kts 163°
2026-05-04 13:37 40.31046 11.95143 37147 ft 485 kts 162°
2026-05-04 13:37 40.24833 11.98610 37138 ft 486 kts 162°
2026-05-04 13:38 40.18636 12.02066 37124 ft 479 kts 162°
2026-05-04 13:38 40.12581 12.05441 37131 ft 475 kts 162°
2026-05-04 13:39 40.06482 12.08807 37131 ft 476 kts 163°
2026-05-04 13:39 40.00371 12.12169 37131 ft 477 kts 163°
2026-05-04 13:40 39.94282 12.15536 37125 ft 473 kts 162°
2026-05-04 13:40 39.88230 12.18880 37137 ft 472 kts 163°
2026-05-04 13:41 39.82186 12.22204 37131 ft 472 kts 162°
2026-05-04 13:41 39.76147 12.25524 37150 ft 470 kts 162°
2026-05-04 13:42 39.67129 12.30449 37155 ft 468 kts 162°
2026-05-04 13:42 39.61125 12.33715 37154 ft 467 kts 162°
2026-05-04 13:43 39.55132 12.36981 37146 ft 467 kts 162°
2026-05-04 13:43 39.49150 12.40249 37158 ft 466 kts 162°
2026-05-04 13:44 39.43178 12.43497 37150 ft 465 kts 162°
2026-05-04 13:44 39.37214 12.46714 37153 ft 465 kts 162°
2026-05-04 13:45 39.31249 12.49932 37145 ft 464 kts 162°
2026-05-04 13:45 39.25287 12.53156 37143 ft 465 kts 162°
2026-05-04 13:46 39.19324 12.56387 37143 ft 465 kts 162°
2026-05-04 13:46 39.13362 12.59593 37147 ft 465 kts 162°
2026-05-04 13:47 39.07439 12.62772 37138 ft 464 kts 161°
2026-05-04 13:47 39.01479 12.65967 37144 ft 464 kts 161°
2026-05-04 13:48 38.95532 12.69151 37144 ft 463 kts 161°
2026-05-04 13:48 38.89577 12.72325 37145 ft 463 kts 161°
2026-05-04 13:49 38.83628 12.75492 37149 ft 462 kts 161°
2026-05-04 13:49 38.77700 12.78653 37152 ft 461 kts 161°
2026-05-04 13:50 38.71776 12.81805 37149 ft 461 kts 161°
2026-05-04 13:50 38.65852 12.84944 37147 ft 461 kts 161°
2026-05-04 13:51 38.59929 12.88075 37136 ft 460 kts 161°
2026-05-04 13:51 38.54019 12.91195 37142 ft 459 kts 161°
2026-05-04 13:52 38.45143 12.95884 37113 ft 462 kts 161°
2026-05-04 13:53 38.39185 12.99029 37081 ft 465 kts 162°
2026-05-04 13:53 38.34197 13.01645 37105 ft 468 kts 162°
2026-05-04 13:54 38.25013 13.06424 37140 ft 481 kts 162°
2026-05-04 13:55 38.15716 13.11301 37139 ft 482 kts 162°
2026-05-04 13:55 38.06398 13.16154 37124 ft 483 kts 162°
2026-05-04 13:56 38.00169 13.19398 37132 ft 484 kts 162°
2026-05-04 13:57 37.90829 13.24347 37151 ft 486 kts 161°
2026-05-04 13:58 37.78368 13.30954 36564 ft 485 kts 162°
2026-05-04 13:58 37.72140 13.34221 35837 ft 484 kts 162°
2026-05-04 13:58 37.69030 13.35847 35256 ft 483 kts 162°
2026-05-04 13:59 37.65938 13.37464 34725 ft 481 kts 162°
2026-05-04 13:59 37.62843 13.39080 34201 ft 480 kts 162°
2026-05-04 13:59 37.56707 13.42288 33123 ft 474 kts 162°
2026-05-04 14:00 37.53668 13.43876 32582 ft 471 kts 162°
2026-05-04 14:00 37.47697 13.46990 31573 ft 464 kts 162°
2026-05-04 14:00 37.44723 13.48541 31061 ft 462 kts 161°
2026-05-04 14:01 37.41764 13.50082 30571 ft 459 kts 161°
2026-05-04 14:01 37.38821 13.51614 30024 ft 456 kts 161°
2026-05-04 14:01 37.33020 13.54627 29053 ft 446 kts 161°
2026-05-04 14:02 37.30167 13.56106 28588 ft 441 kts 161°
2026-05-04 14:02 37.27350 13.57566 28137 ft 436 kts 161°
2026-05-04 14:02 37.24593 13.58992 27699 ft 432 kts 161°
2026-05-04 14:02 37.21761 13.60449 27255 ft 442 kts 161°
2026-05-04 14:03 37.18918 13.61907 26800 ft 451 kts 161°
2026-05-04 14:03 37.15982 13.63419 26325 ft 465 kts 161°
2026-05-04 14:03 37.12959 13.64981 25832 ft 472 kts 160°
2026-05-04 14:03 37.09934 13.66552 25341 ft 470 kts 160°
2026-05-04 14:04 37.03942 13.69660 24316 ft 462 kts 160°
2026-05-04 14:04 37.00983 13.71184 23791 ft 458 kts 161°
2026-05-04 14:04 36.98051 13.72690 23212 ft 453 kts 161°
2026-05-04 14:05 36.92274 13.75654 22162 ft 445 kts 160°
2026-05-04 14:05 36.89423 13.77116 21617 ft 440 kts 160°
2026-05-04 14:05 36.86605 13.78561 21100 ft 436 kts 160°
2026-05-04 14:06 36.83814 13.79989 20568 ft 432 kts 160°
2026-05-04 14:06 36.81043 13.81407 20058 ft 428 kts 160°
2026-05-04 14:06 36.78336 13.82793 19864 ft 413 kts 160°
2026-05-04 14:06 36.75724 13.84134 19623 ft 401 kts 160°
2026-05-04 14:07 36.73168 13.85446 19180 ft 395 kts 160°
2026-05-04 14:07 36.70636 13.86744 18686 ft 392 kts 160°
2026-05-04 14:07 36.68125 13.88028 18144 ft 389 kts 159°
2026-05-04 14:07 36.65634 13.89296 17593 ft 385 kts 160°
2026-05-04 14:08 36.63168 13.90547 17061 ft 381 kts 160°
2026-05-04 14:08 36.60722 13.91787 16539 ft 378 kts 160°
2026-05-04 14:08 36.58301 13.93013 16025 ft 374 kts 160°
2026-05-04 14:08 36.55903 13.94231 15519 ft 370 kts 160°
2026-05-04 14:09 36.51182 13.96627 14538 ft 363 kts 160°
2026-05-04 14:09 36.48855 13.97806 14061 ft 359 kts 160°
2026-05-04 14:10 36.44265 14.00124 13007 ft 352 kts 160°
2026-05-04 14:10 36.42007 14.01269 12491 ft 349 kts 159°
2026-05-04 14:10 36.39803 14.02387 11981 ft 346 kts 159°
2026-05-04 14:10 36.37579 14.03515 11528 ft 344 kts 159°
2026-05-04 14:11 36.35396 14.04620 11269 ft 333 kts 159°
2026-05-04 14:11 36.31267 14.06710 10850 ft 313 kts 158°
2026-05-04 14:11 36.29351 14.07968 10476 ft 310 kts 151°
2026-05-04 14:12 36.27490 14.09309 10085 ft 309 kts 150°
2026-05-04 14:12 36.25642 14.10661 9642 ft 307 kts 150°
2026-05-04 14:12 36.22016 14.13326 8740 ft 299 kts 150°
2026-05-04 14:13 36.20232 14.14632 8160 ft 297 kts 150°
2026-05-04 14:13 36.18452 14.15929 7552 ft 296 kts 150°
2026-05-04 14:13 36.16683 14.17213 6901 ft 293 kts 150°
2026-05-04 14:13 36.14933 14.18483 6228 ft 291 kts 150°
2026-05-04 14:14 36.13200 14.19740 5869 ft 288 kts 150°
2026-05-04 14:14 36.09782 14.22212 5223 ft 280 kts 150°
2026-05-04 14:14 36.08132 14.23403 5056 ft 269 kts 150°
2026-05-04 14:15 36.05031 14.25641 4818 ft 247 kts 150°
2026-05-04 14:15 36.02234 14.27671 4616 ft 219 kts 148°
2026-05-04 14:16 35.99962 14.30070 4233 ft 213 kts 135°
2026-05-04 14:16 35.98932 14.31351 3965 ft 211 kts 136°
2026-05-04 14:17 35.96953 14.33821 3440 ft 196 kts 137°
2026-05-04 14:17 35.96005 14.35002 3173 ft 192 kts 136°
2026-05-04 14:17 35.94169 14.37287 2674 ft 185 kts 137°
2026-05-04 14:18 35.93276 14.38398 2435 ft 179 kts 138°
2026-05-04 14:18 35.91574 14.40515 1974 ft 169 kts 138°
2026-05-04 14:19 35.90015 14.42454 1545 ft 146 kts 139°
2026-05-04 14:19 35.89321 14.43315 1350 ft 139 kts 139°
2026-05-04 14:19 35.88646 14.44153 1168 ft 137 kts 139°
2026-05-04 14:19 35.87975 14.44990 990 ft 137 kts 139°
2026-05-04 14:20 35.87308 14.45820 798 ft 135 kts 140°
2026-05-04 14:20 35.86638 14.46648 600 ft 138 kts 138°
2026-05-04 14:20 35.85958 14.47486 412 ft 139 kts 137°
2026-05-04 14:21 35.84754 14.48977 259 ft 83 kts 134°
2026-05-04 14:21 35.84498 14.49310 259 ft 31 kts 129°
2026-05-04 14:21 35.84453 14.49450 259 ft 5 kts 103°
2026-05-04 14:21 35.84451 14.49546 259 ft 15 kts 62°
2026-05-04 14:22 35.84532 14.49554 259 ft 11 kts 323°
2026-05-04 14:22 35.84596 14.49545 259 ft 11 kts 39°
2026-05-04 14:22 35.84659 14.49576 259 ft 11 kts 330°
2026-05-04 14:22 35.84724 14.49525 259 ft 12 kts 317°
2026-05-04 14:23 35.84825 14.49402 259 ft 0 kts 315°
2026-05-04 14:23 35.84832 14.49394 259 ft 3 kts 315°
2026-05-04 14:23 35.84840 14.49385 259 ft 1 kts 315°
2026-05-04 14:24 35.84842 14.49382 259 ft 1 kts 315°
2026-05-04 14:24 35.84857 14.49363 259 ft 7 kts 314°
2026-05-04 14:24 35.84905 14.49301 259 ft 8 kts 309°
2026-05-04 14:24 35.84893 14.49256 259 ft 5 kts 225°
2026-05-04 14:25 35.84873 14.49231 258 ft 3 kts 224°
2026-05-04 14:25 35.84861 14.49217 259 ft 0 kts 225°